Weather in Troitskoe

Russia / Sakhalin District     46°55′30″N   142°38′58″E
temp.,
°C
wind,
m/s
gust,
m/s
humid.,
%
clouds,
%
prec.,
mm/h
press.,
hPa
HPBL,
m
19 september, sun
sun1923:00+11s249929 0.0 101263
02:00+12ssw249999 0.0 1012199
05:00+12nnw239793 0.0 101296
08:00+9nw22855 0.0 101326
11:00+15nw345220 0.0 1013961
14:00+16wnw56385 0.0 10121675
17:00+14wnw4448100 0.0 10131303
20:00+10nw2163100 0.0 101518
20 september, mon
mon2023:00+6w11724 0.0 101611
02:00+6wnw11775 0.0 101611
05:00+6wnw226892 0.0 101615
08:00+7w12760 0.0 101718
11:00+15w58505 0.0 10161824
14:00+16w79465 0.0 10161645
17:00+14w685122 0.0 10161309
20:00+8wsw1177100 0.0 101811
21 september, tue
tue2123:00+7wsw1177100 0.0 101912
02:00+8sw1177100 0.0 101812
05:00+8wsw118794 0.0 101812
08:00+9ssw118564 0.0 101816
11:00+15ssw3464100 0.0 1017442
14:00+16ssw3563100 0.0 1016819
17:00+16ssw4671100 0.0 1014670
20:00+13sw2280100 0.0 101536
22 september, wed
wed2223:00+12ssw2294100 0.4 101648
02:00+12wnw0096100 0.2 101512
05:00+12ne2295100 1.1 101533
08:00+12ene2296100 0.5 101557
11:00+12ne2399100 4.7 1014192
14:00+12ne3898100 7.6 1012527
17:00+11ene41197100 15.8 1012665
20:00+11ne51397100 5.0 1013759
23 september, thu
thu2323:00+10ne61497100 6.1 1015878
02:00+10ne51497100 0.6 1015833
05:00+10ne51497100 1.1 1016808
08:00+10ne51496100 0.2 1016821
11:00+10ne51288100 0.2 1017814
14:00+10ne51082100 0.0 1018827
17:00+11ne51073100 0.0 1018848
20:00+9ne41181100 0.0 1019819